Location: U-46 Planetarium
(42.0300°N, 88.2740°W)
Time: 03:47:40
(UTC-06:00)

Cosmos 1975 Rocket - Pass Details

Date: 16 December 2017
Orbit: 603 x 635 km, 82.5° (Epoch: 22 January)

Event Time Altitude Azimuth Distance (km) Brightness Sun altitude
Rises 16:49:01 0° 187° (S) 2,911 7.0 -5.1°
Reaches altitude 10° 16:51:14 10° 188° (S) 2,010 6.2 -5.5°
Maximum altitude 16:55:42 86° 276° (W) 643 3.2 -6.2°
Drops below altitude 10° 17:00:14 10° 7° (N) 2,030 5.4 -7.0°
Sets 17:02:29 0° 8° (N) 2,942 6.2 -7.3°
